Location: El Diablo
(32.4667°N, 116.4500°W)
Time: 01:35:37
(UTC+00:00)

Cosmos 1484 Rocket - Pass Details

Date: 10 September 2024
Orbit: 474 x 511 km, 97.6° (Epoch: 06 October)

Event Time Altitude Azimuth Distance (km) Brightness Sun altitude
Rises 12:32:12 0° 5° (N) 2,616 6.5 -12.2°
Reaches altitude 10° 12:34:19 10° 1° (N) 1,733 5.5 -11.7°
Maximum altitude 12:37:57 53° 284° (WNW) 634 2.8 -11.0°
Drops below altitude 10° 12:41:37 10° 207° (SSW) 1,736 5.0 -10.2°
Sets 12:43:44 0° 202° (SSW) 2,620 5.9 -9.8°
